Flag for Australia Weather past 2 weeks in Adelaide, South Australia, Australia

Now
46 °F

Clear.


Feels Like: 46 °F
Forecast: 46 / 56 °F
Wind: No wind

Location: Adelaide Airport

Current Time: Jul 28, 2015 at 8:54:35 PM

Latest Report: Jul 28, 2015 at 8:00 PM


Visibility: 10 mi

Pressure: 30.54 "Hg

Humidity: 87%

Dew point: 43 °F

Location of AdelaideLocation

Historic Weather in Adelaide — Graph

°F

Adelaide temperature yesterday

Maximum temperature yesterday: 55 °F (at 1:30 PM)
Minimum temperature yesterday: 39 °F (at 4:00 AM)
Average temperature yesterday: 48 °F

Past Weeks' High & Low Weather Summary

 TemperatureHumidityPressure
High64 °F (Jul 23, 2:30 PM)100% (Jul 17, 3:00 AM)30.66 "Hg (Jul 17, 3:00 AM)
Low36 °F (Jul 19, 5:00 AM)38% (Jul 20, 1:30 PM)29.92 "Hg (Jul 21, 3:30 PM)
Average50 °F75%30.24 "Hg
* Reported Jul 13 7:30 PM — Jul 28 7:30 PM, Adelaide, Weather by CustomWeather, © 2015

Note: Actual official high and low records may vary slightly from our data, if they occured in-between our weather recording intervals... More about our weather records

Advertising

Adelaide weather history for previous 24 hours

 ConditionsComfort  
Time TempWeatherWind HumidityBarometerVisibility
7:30 PM
Tue, Jul 28
48 °FClear.No wind87%30.54 "Hg10 mi
7:00 PM48 °FClear.No wind87%30.54 "Hg10 mi
6:30 PM48 °FClear.No wind87%30.54 "Hg10 mi
6:00 PM50 °FClear.No wind82%30.54 "Hg10 mi
5:30 PM52 °FClear.5 mph77%30.54 "Hg10 mi
5:00 PM52 °FSunny.3 mph77%30.57 "Hg10 mi
4:30 PM54 °FPartly sunny.6 mph72%30.54 "HgN/A
4:00 PM54 °FPartly sunny.7 mph72%30.57 "HgN/A
3:30 PM54 °FPartly sunny.8 mph67%30.54 "HgN/A
3:00 PM54 °FBroken clouds.8 mph67%30.54 "HgN/A
2:30 PM55 °FScattered clouds.9 mph63%30.57 "HgN/A
2:00 PM55 °FScattered clouds.7 mph63%30.57 "HgN/A
1:30 PM55 °FScattered clouds.7 mph63%30.57 "HgN/A
1:00 PM54 °FPartly sunny.7 mph67%30.60 "HgN/A
12:30 PM54 °FPartly sunny.7 mph72%30.60 "HgN/A
12:00 PM54 °FPartly sunny.8 mph72%30.63 "HgN/A
11:30 AM54 °FScattered clouds.8 mph72%30.63 "HgN/A
11:00 AM54 °FPartly sunny.9 mph77%30.66 "HgN/A
10:30 AM52 °FBroken clouds.10 mph77%30.66 "HgN/A
10:00 AM50 °FPartly sunny.10 mph88%30.66 "HgN/A
9:30 AM50 °FPartly sunny.10 mph82%30.66 "Hg6 mi
9:00 AM48 °FPassing clouds.12 mph87%30.63 "Hg6 mi
8:30 AM46 °FScattered clouds.12 mph93%30.63 "Hg6 mi
8:00 AM46 °FScattered showers. Partly sunny.8 mph93%30.63 "Hg5 mi
7:30 AM46 °FDrizzle. Partly sunny.6 mph93%30.66 "HgN/A
7:00 AM46 °FFog.6 mph93%30.63 "HgN/A
6:30 AM46 °FFog.6 mph93%30.63 "HgN/A
6:00 AM46 °FScattered showers. Partly cloudy.5 mph93%30.63 "HgN/A
5:30 AM45 °FScattered showers. Partly cloudy.7 mph100%30.63 "HgN/A
5:00 AM46 °FPassing clouds.6 mph93%30.60 "HgN/A
4:30 AM45 °FPassing clouds.6 mph100%30.60 "HgN/A
4:20 AM45 °FPassing clouds.6 mph100%30.60 "HgN/A
4:00 AM46 °FPassing clouds.6 mph93%30.60 "HgN/A
3:30 AM46 °FPartly cloudy.8 mph93%30.60 "HgN/A
3:00 AM46 °FPartly cloudy.8 mph93%30.60 "HgN/A
2:30 AM46 °FPassing clouds.7 mph93%30.60 "HgN/A
2:00 AM46 °FPartly cloudy.7 mph93%30.60 "HgN/A
1:30 AM46 °FPartly cloudy.5 mph93%30.60 "HgN/A
1:00 AM46 °FScattered showers. Passing clouds.8 mph100%30.60 "HgN/A
12:30 AM46 °FScattered showers. Passing clouds.8 mph100%30.60 "HgN/A
12:00 AM46 °FScattered showers. Partly cloudy.7 mph100%30.60 "HgN/A
11:30 PM
Mon, Jul 27
46 °FScattered showers. Passing clouds.8 mph100%30.60 "HgN/A
11:00 PM46 °FScattered showers. Partly cloudy.6 mph93%30.60 "HgN/A
10:30 PM46 °FPassing clouds.6 mph93%30.60 "HgN/A
10:00 PM46 °FPassing clouds.6 mph93%30.60 "HgN/A
9:30 PM50 °FScattered showers. Partly cloudy.6 mph88%30.60 "HgN/A
9:00 PM50 °FScattered showers. Partly cloudy.2 mph88%30.60 "HgN/A
8:30 PM50 °FScattered showers. Partly cloudy.No wind88%30.60 "HgN/A
8:00 PM50 °FSprinkles. Partly cloudy.8 mph88%30.60 "Hg6 mi
Weather by CustomWeather, © 2015

See weather overviewHow to use our weather pages